Tracking 23758 objects as of 27-Oct-2021
HD Live streaming from Space Station
objects crossing your sky now

IRIDIUM 33 DEB

Track IRIDIUM 33 DEB now!
10-day predictions


NORAD ID: 46965
Int'l Code: 1997-051ABX
Perigee: 723.5 km
Apogee: 757.8 km
Inclination: 86.3 °
Period: 99.5 minutes
Semi major axis: 7111 km
RCS: Unknown
Launch date: September 14, 1997
Source: United States (US)
Launch site: TYURATAM MISSILE AND SPACE COMPLEX (TTMTR)

Note: This is SATELLITE DEBRIS
aabbcc
Your satellite tracking list
Your tracking list is empty




NASA's NSSDC Master Catalog

Two Line Element Set (TLE):
1 46965U 97051ABX 21299.21251119  .00000733  00000-0  19301-3 0  9997
2 46965  86.3364 280.3716 0024103 352.4614  20.4405 14.47604234403720
Source of the keplerian elements: AFSPC